Location: ??? ???
(33.4974°N, 35.4618°E)
Time: 18:38:47
(UTC+00:00)

CRYOSAT 2 - Pass Details

Date: 29 October 2020
Orbit: 715 x 724 km, 92.0° (Epoch: 30 November)

Event Time Altitude Azimuth Distance (km) Brightness Sun altitude
Rises 16:07:32 0° 9° (N) 3,123 7.5 -17.0°
Reaches altitude 10° 16:09:52 10° 13° (NNE) 2,200 6.7 -17.4°
Maximum altitude 16:14:40 60° 93° (E) 819 4.3 -18.4°
Drops below altitude 10° 16:19:26 10° 174° (S) 2,187 6.8 -19.4°
Sets 16:21:44 0° 177° (S) 3,104 7.7 -19.9°
